�N����,����,����,����,����,�C��,���x,�~����,�S�V����,�ő�u�ԕ���,,,,,
,,,,,,,,,����,����,����,�N��,,
yyyy/mm/dd,hh:mm:ss,(16),16����,m/s,��,%,mm,KW/�u,(16),16����,m/s,Time,,
2019/1/1,1:00:00,14,�k��,2.8,-11.8,85.9,0,0,13,���k��,3.9,56,,
2019/1/1,2:00:00,13,���k��,1.5,-12.3,86.2,0,0,14,�k��,3.4,6,,
2019/1/1,3:00:00,13,���k��,1.4,-13.2,86,0,0,13,���k��,2.3,43,,
2019/1/1,4:00:00,14,�k��,2.2,-9.2,90.3,0,0,14,�k��,3.6,39,,
2019/1/1,5:00:00,14,�k��,1.3,-9,88.8,0,0,14,�k��,5.8,23,,
2019/1/1,6:00:00,15,�k�k��,0.7,-12.1,82.4,0,0,14,�k��,2.3,50,,
2019/1/1,7:00:00,12,��,1.7,-14.4,81.2,0,0.01,12,��,4.6,39,,
2019/1/1,8:00:00,12,��,3.2,-13.2,88.3,0,0.09,12,��,4.3,48,,
2019/1/1,9:00:00,13,���k��,1.9,-10,70.2,0,0.25,13,���k��,4.4,10,,
2019/1/1,10:00:00,15,�k�k��,1.3,-4.7,61.8,0,0.33,13,���k��,2.9,17,,
2019/1/1,11:00:00,2,�k��,2.3,-0.5,44.8,0,0.48,2,�k��,4.1,48,,
2019/1/1,12:00:00,2,�k��,3.2,0.8,33.7,0,0.52,3,���k��,4.9,37,,
2019/1/1,13:00:00,16,�k,1.3,1.3,28.4,0,0.5,15,�k�k��,4.1,59,,
2019/1/1,14:00:00,14,�k��,1.9,0.6,27.4,0,0.4,15,�k�k��,4.3,1,,
2019/1/1,15:00:00,15,�k�k��,2.5,0.2,30,0,0.25,15,�k�k��,4.2,58,,
2019/1/1,16:00:00,14,�k��,1,-4.2,38,0,0.08,15,�k�k��,4.1,18,,
2019/1/1,17:00:00,12,��,1.6,-6,49.6,0,0,7,��쓌,2.6,12,,
2019/1/1,18:00:00,3,���k��,0.3,-6.7,56.5,0,0,3,���k��,7.9,51,,
2019/1/1,19:00:00,13,���k��,1.4,-11.1,61.3,0,0,12,��,2,53,,
2019/1/1,20:00:00,14,�k��,0.9,-8.1,73.9,0,0,14,�k��,2.5,26,,
2019/1/1,21:00:00,13,���k��,1,-10.6,77,0,0,14,�k��,4.1,37,,
2019/1/1,22:00:00,14,�k��,2.1,-7.8,77.3,0,0,14,�k��,3.8,57,,
2019/1/1,23:00:00,13,���k��,0.7,-9.9,76,0,0,14,�k��,3.9,14,,
2019/1/1,0:00:00,14,�k��,1.7,-8.9,82.5,0,0,13,���k��,4,29,,
2019/1/2,1:00:00,13,���k��,1.7,-14.4,78.9,0,0,14,�k��,3.8,3,,
2019/1/2,2:00:00,14,�k��,1.8,-11.7,85.3,0,0,14,�k��,4.1,27,,
2019/1/2,3:00:00,14,�k��,2.2,-15.7,83,0,0,13,���k��,3.5,22,,
2019/1/2,4:00:00,12,��,1.8,-14,86.4,0,0,14,�k��,3.2,27,,
2019/1/2,5:00:00,13,���k��,2.5,-14.4,86.6,0,0,13,���k��,3.9,23,,
2019/1/2,6:00:00,13,���k��,1.4,-15.4,87.8,0,0,13,���k��,3.9,33,,
2019/1/2,7:00:00,13,���k��,1.1,-15.1,88.7,0,0.01,12,��,3.7,17,,
2019/1/2,8:00:00,11,���쐼,2.6,-14.4,89,0,0.09,12,��,3.3,55,,
2019/1/2,9:00:00,13,���k��,1,-9.1,70.5,0,0.28,13,���k��,3.4,49,,
2019/1/2,10:00:00,14,�k��,0.7,-5.2,63.9,0,0.26,12,��,3,20,,
2019/1/2,11:00:00,2,�k��,1,-1.4,42.9,0,0.42,12,��,5.2,2,,
2019/1/2,12:00:00,2,�k��,3,-1.3,51.2,0,0.43,2,�k��,4.4,59,,
2019/1/2,13:00:00,14,�k��,1.1,-0.9,52.6,0,0.48,16,�k,5.2,32,,
2019/1/2,14:00:00,14,�k��,1.4,-0.9,37.1,0,0.34,14,�k��,3.6,19,,
2019/1/2,15:00:00,14,�k��,1.9,-1.3,37.5,0,0.25,14,�k��,4.4,18,,
2019/1/2,16:00:00,12,��,1.4,-4.9,43.8,0,0.05,15,�k�k��,2.5,0,,
2019/1/2,17:00:00,13,���k��,1.9,-10,56.7,0,0.01,13,���k��,2.4,59,,
2019/1/2,18:00:00,14,�k��,2.3,-5.1,73.2,0,0,15,�k�k��,4.1,59,,
2019/1/2,19:00:00,14,�k��,2.1,-7.9,70.1,0,0,14,�k��,3.3,40,,
2019/1/2,20:00:00,14,�k��,2.3,-11.8,72.4,0,0,14,�k��,3.3,32,,
2019/1/2,21:00:00,14,�k��,1.9,-11.8,77.7,0,0,14,�k��,3.9,8,,
2019/1/2,22:00:00,13,���k��,1.7,-12.3,77.6,0,0,14,�k��,3,1,,
2019/1/2,23:00:00,13,���k��,2.5,-14.6,80.1,0,0,13,���k��,3.2,56,,
2019/1/2,0:00:00,13,���k��,2.2,-13.2,86.4,0,0,13,���k��,3,43,,
2019/1/3,1:00:00,14,�k��,2.8,-10.1,82.1,0,0,13,���k��,4.2,36,,
2019/1/3,2:00:00,12,��,0.8,-12.1,75.2,0,0,14,�k��,3.7,8,,
2019/1/3,3:00:00,13,���k��,2.3,-13.8,79.3,0,0,14,�k��,3.5,35,,
2019/1/3,4:00:00,13,���k��,1.9,-14.3,82,0,0,13,���k��,3.1,39,,
2019/1/3,5:00:00,12,��,2.8,-17.1,81,0,0,13,���k��,3.7,56,,
2019/1/3,6:00:00,13,���k��,2.9,-14.8,84.7,0,0,13,���k��,4.2,41,,
2019/1/3,7:00:00,14,�k��,2.4,-15.6,81.6,0,0.01,13,���k��,3.3,21,,
2019/1/3,8:00:00,15,�k�k��,0.8,-14.4,80.9,0,0.09,13,���k��,3.1,19,,
2019/1/3,9:00:00,8,��,0.3,-10.4,63.1,0,0.26,12,��,18.7,6,,
2019/1/3,10:00:00,10,�쐼,0.6,-6.7,38.6,0,0.41,10,�쐼,2.3,18,,
2019/1/3,11:00:00,13,���k��,0.5,-3.2,30.6,0,0.5,11,���쐼,1.6,20,,
2019/1/3,12:00:00,14,�k��,2.6,-0.9,25.6,0,0.53,14,�k��,4.4,56,,
2019/1/3,13:00:00,15,�k�k��,1.9,-0.7,26.3,0,0.5,16,�k,4.8,1,,
2019/1/3,14:00:00,15,�k�k��,2.2,-0.7,32.1,0,0.41,14,�k��,4.8,11,,
2019/1/3,15:00:00,14,�k��,1.6,-0.6,34.7,0,0.26,13,���k��,4.1,43,,
2019/1/3,16:00:00,14,�k��,1.4,-2.2,39.3,0,0.09,15,�k�k��,3.2,0,,
2019/1/3,17:00:00,14,�k��,1.2,-4.5,51,0,0.01,14,�k��,3.4,17,,
2019/1/3,18:00:00,13,���k��,1.3,-8.7,60.4,0,0,14,�k��,3.6,0,,
2019/1/3,19:00:00,12,��,1.6,-11,63.9,0,0,13,���k��,2.2,57,,
2019/1/3,20:00:00,12,��,2.3,-10.5,70.6,0,0,11,���쐼,2.9,55,,
2019/1/3,21:00:00,13,���k��,1.3,-11,78.5,0,0,12,��,2.5,56,,
2019/1/3,22:00:00,14,�k��,1.3,-12.7,80.9,0,0,14,�k��,3.6,40,,
2019/1/3,23:00:00,13,���k��,2.7,-13.9,75,0,0,13,���k��,3.2,53,,
2019/1/3,0:00:00,14,�k��,2.2,-13.8,80.7,0,0,13,���k��,3.2,14,,
2019/1/4,1:00:00,13,���k��,2.1,-14.6,83.2,0,0,13,���k��,2.7,36,,
2019/1/4,2:00:00,13,���k��,1.5,-14.7,86,0,0,13,���k��,2.8,3,,
2019/1/4,3:00:00,13,���k��,1.6,-14.2,86.6,0,0,13,���k��,3.2,45,,
2019/1/4,4:00:00,14,�k��,1.7,-13.7,87.2,0,0,13,���k��,3.2,6,,
2019/1/4,5:00:00,13,���k��,1.9,-13.8,86.3,0,0,14,�k��,2.9,43,,
2019/1/4,6:00:00,14,�k��,2,-13.8,86.2,0,0,14,�k��,4,36,,
2019/1/4,7:00:00,14,�k��,1.7,-14.2,85,0,0.01,14,�k��,3.4,34,,
2019/1/4,8:00:00,13,���k��,1.9,-12.3,85.6,0,0.1,14,�k��,3.1,30,,
2019/1/4,9:00:00,14,�k��,2.4,-8,70.7,0,0.22,13,���k��,3.4,45,,
2019/1/4,10:00:00,14,�k��,1.1,-6.1,53.1,0,0.33,13,���k��,2.6,45,,
2019/1/4,11:00:00,11,���쐼,0.5,-3.6,48.7,0,0.37,12,��,1.9,42,,
2019/1/4,12:00:00,1,�k�k��,1.5,-0.8,31.6,0,0.54,2,�k��,2.3,58,,
2019/1/4,13:00:00,3,���k��,0.5,0.6,34.2,0,0.5,1,�k�k��,2.5,1,,
2019/1/4,14:00:00,4,��,1.5,-0.2,41.7,0,0.41,4,��,2.8,36,,
2019/1/4,15:00:00,5,���쓌,1.3,-1.6,51.5,0,0.26,4,��,3.2,32,,
2019/1/4,16:00:00,10,�쐼,0.4,-5.8,57.7,0,0.08,6,�쓌,2.4,2,,
2019/1/4,17:00:00,12,��,0.9,-6.5,68.6,0,0.01,11,���쐼,2.5,54,,
2019/1/4,18:00:00,13,���k��,1.2,-10.5,72,0,0,15,�k�k��,2.5,9,,
2019/1/4,19:00:00,14,�k��,1.1,-11,81.8,0,0,13,���k��,2.3,54,,
2019/1/4,20:00:00,13,���k��,1.3,-9.8,87.2,0,0,14,�k��,3.3,26,,
2019/1/4,21:00:00,13,���k��,2.8,-9.7,90.6,0,0,13,���k��,4.8,59,,
2019/1/4,22:00:00,13,���k��,1.9,-9.1,91.7,0,0,13,���k��,5.3,13,,
2019/1/4,23:00:00,13,���k��,2.5,-8.5,90.8,0,0,13,���k��,4.9,50,,
2019/1/4,0:00:00,13,���k��,2,-10.4,89.5,0,0,13,���k��,3.7,39,,
2019/1/5,1:00:00,13,���k��,2.3,-10.5,87.2,0,0,13,���k��,3.4,58,,
2019/1/5,2:00:00,13,���k��,2.2,-10.3,89.2,0,0,13,���k��,4.6,18,,
2019/1/5,3:00:00,12,��,2.8,-10.8,90.2,0,0,12,��,6.1,1,,
2019/1/5,4:00:00,13,���k��,2.6,-10.1,92.1,0,0,13,���k��,4,34,,
2019/1/5,5:00:00,12,��,2.8,-9.3,93.1,0,0,12,��,4,35,,
2019/1/5,6:00:00,14,�k��,2.4,-5.8,93.5,0,0,15,�k�k��,3.3,59,,
2019/1/5,7:00:00,16,�k,2,-4.9,91.5,0,0.01,14,�k��,6,32,,
2019/1/5,8:00:00,13,���k��,1.5,-5,82.8,0,0.03,14,�k��,4.1,21,,
2019/1/5,9:00:00,14,�k��,3,-2.5,82.7,0,0.1,14,�k��,6.2,29,,
2019/1/5,10:00:00,14,�k��,3.1,-1.4,65.9,0,0.21,15,�k�k��,5.5,58,,
2019/1/5,11:00:00,14,�k��,4.1,-0.6,47.9,0,0.46,14,�k��,6.6,58,,
2019/1/5,12:00:00,15,�k�k��,4.4,0.3,41.3,0,0.5,14,�k��,8.3,16,,
2019/1/5,13:00:00,14,�k��,4.4,0.6,30.9,0,0.47,15,�k�k��,8.3,55,,
2019/1/5,14:00:00,15,�k�k��,4,-0.2,34.9,0,0.38,13,���k��,9.7,12,,
2019/1/5,15:00:00,15,�k�k��,3.3,-1.5,50.5,0,0.19,15,�k�k��,9.5,16,,
2019/1/5,16:00:00,13,���k��,2.7,-4,57.9,0,0.06,14,�k��,5.3,5,,
2019/1/5,17:00:00,14,�k��,4.3,-3.3,65.1,0,0.01,14,�k��,8.8,59,,
2019/1/5,18:00:00,15,�k�k��,4.5,-3.3,57.8,0,0,14,�k��,9.4,3,,
2019/1/5,19:00:00,15,�k�k��,3.3,-3.6,52.1,0,0,14,�k��,7.7,11,,
2019/1/5,20:00:00,14,�k��,3.2,-4.7,54.1,0,0,14,�k��,6.1,52,,
2019/1/5,21:00:00,14,�k��,2.9,-4.5,50.3,0,0,15,�k�k��,7.3,20,,
2019/1/5,22:00:00,15,�k�k��,2.4,-5.5,50.2,0,0,14,�k��,5.6,4,,
2019/1/5,23:00:00,15,�k�k��,2.5,-5.3,50.9,0,0,15,�k�k��,5.3,53,,
2019/1/5,0:00:00,15,�k�k��,2.4,-5.5,52.3,0,0,16,�k,4.7,8,,
2019/1/6,1:00:00,15,�k�k��,2.1,-5.7,53.4,0,0,16,�k,5.9,49,,
2019/1/6,2:00:00,12,��,1.7,-9.1,53.4,0,0,8,��,4.6,7,,
2019/1/6,3:00:00,12,��,2.4,-11.3,60.8,0,0,12,��,3.1,59,,
2019/1/6,4:00:00,14,�k��,2.4,-9.1,73.4,0,0,13,���k��,4,17,,
2019/1/6,5:00:00,12,��,2.4,-12.5,75.4,0,0,13,���k��,5.1,21,,
2019/1/6,6:00:00,13,���k��,1.3,-12.3,74.7,0,0,13,���k��,3.4,7,,
2019/1/6,7:00:00,13,���k��,2.9,-13.9,72.8,0,0.01,12,��,3.9,50,,
2019/1/6,8:00:00,13,���k��,1.1,-13.9,76.8,0,0.09,13,���k��,3.8,2,,
2019/1/6,9:00:00,13,���k��,0.6,-10.8,60,0,0.25,13,���k��,2.6,2,,
2019/1/6,10:00:00,16,�É�,0,-7.6,47.7,0,0.31,16,�k,2.6,34,,
2019/1/6,11:00:00,13,���k��,1.5,-5.5,40.8,0,0.3,14,�k��,2.8,9,,
2019/1/6,12:00:00,11,���쐼,1.4,-1.5,36,0,0.47,10,�쐼,2.8,58,,
2019/1/6,13:00:00,11,���쐼,2.5,-1.3,29.3,0,0.49,10,�쐼,4.8,52,,
2019/1/6,14:00:00,12,��,2.2,-0.6,28.6,0,0.41,11,���쐼,4.3,35,,
2019/1/6,15:00:00,16,�k,1,-1.3,29.4,0,0.26,16,�k,2.5,59,,
2019/1/6,16:00:00,15,�k�k��,1,-3.5,31.7,0,0.09,2,�k��,2.5,1,,
2019/1/6,17:00:00,13,���k��,1.1,-10.2,46.4,0,0.01,11,���쐼,2.3,28,,
2019/1/6,18:00:00,13,���k��,2.3,-10,60.4,0,0,13,���k��,3,58,,
2019/1/6,19:00:00,14,�k��,2.5,-5.9,63,0,0,15,�k�k��,5.7,57,,
2019/1/6,20:00:00,15,�k�k��,3.3,-4.8,62.6,0,0,15,�k�k��,6.6,57,,
2019/1/6,21:00:00,14,�k��,2.9,-5.6,60.5,0,0,15,�k�k��,6.5,33,,
2019/1/6,22:00:00,14,�k��,2.7,-8.9,61.9,0,0,14,�k��,4.8,4,,
2019/1/6,23:00:00,14,�k��,2.8,-7.6,68.2,0,0,14,�k��,4.4,28,,
2019/1/6,0:00:00,14,�k��,3.3,-8.1,71.3,0,0,14,�k��,5.2,59,,
2019/1/7,1:00:00,15,�k�k��,2.2,-8.6,71.6,0,0,15,�k�k��,5.3,17,,
2019/1/7,2:00:00,15,�k�k��,1.8,-7.7,63.4,0,0,15,�k�k��,4.7,11,,
2019/1/7,3:00:00,1,�k�k��,2.4,-9.9,65.1,0,0,1,�k�k��,4.3,52,,
2019/1/7,4:00:00,13,���k��,2.3,-12.8,62.9,0,0,13,���k��,2.9,46,,
2019/1/7,5:00:00,13,���k��,2.9,-11.6,67.4,0,0,13,���k��,4.6,40,,
2019/1/7,6:00:00,11,���쐼,1.6,-15.6,64.7,0,0,13,���k��,3.5,0,,
2019/1/7,7:00:00,12,��,2.2,-17.2,67.9,0,0.01,12,��,2.6,55,,
2019/1/7,8:00:00,13,���k��,1.3,-13.6,74.7,0,0.09,13,���k��,3.4,25,,
2019/1/7,9:00:00,13,���k��,2,-10.1,57.1,0,0.27,14,�k��,2.7,51,,
2019/1/7,10:00:00,14,�k��,0.7,-6.7,38.9,0,0.42,14,�k��,2.7,23,,
2019/1/7,11:00:00,14,�k��,2.5,-4.2,27.9,0,0.51,15,�k�k��,4.2,53,,
2019/1/7,12:00:00,4,��,0.9,-1.3,23.2,0,0.55,16,�k,3.4,10,,
2019/1/7,13:00:00,16,�É�,0.1,-3,21.4,0,0.52,7,��쓌,2.3,26,,
2019/1/7,14:00:00,8,��,1.5,-3.2,26.5,0,0.43,8,��,3.2,30,,
2019/1/7,15:00:00,6,�쓌,1.1,-3.3,27.9,0,0.28,6,�쓌,2.4,14,,
2019/1/7,16:00:00,14,�k��,1.7,-4.6,31.9,0,0.11,14,�k��,3.1,57,,
2019/1/7,17:00:00,14,�k��,1.8,-6.6,43.2,0,0.01,15,�k�k��,3.6,56,,
2019/1/7,18:00:00,15,�k�k��,0.4,-13.6,54.7,0,0,16,�k,7.9,40,,
2019/1/7,19:00:00,13,���k��,0.8,-12.8,59.5,0,0,12,��,2,0,,
2019/1/7,20:00:00,13,���k��,0.9,-15.9,73,0,0,13,���k��,2.4,6,,
2019/1/7,21:00:00,14,�k��,1.2,-12.9,79.7,0,0,14,�k��,2.9,36,,
2019/1/7,22:00:00,13,���k��,2.2,-13.9,81.3,0,0,12,��,3.2,59,,
2019/1/7,23:00:00,14,�k��,2.5,-14.6,81.9,0,0,14,�k��,3.5,57,,
2019/1/7,0:00:00,14,�k��,3,-14.7,82.6,0,0,14,�k��,3.8,55,,
2019/1/8,1:00:00,13,���k��,1.5,-16.7,81.7,0,0,14,�k��,3.8,2,,
2019/1/8,2:00:00,13,���k��,1.5,-16.4,84,0,0,14,�k��,3.6,44,,
2019/1/8,3:00:00,14,�k��,1.9,-16.6,83.5,0,0,13,���k��,4.2,29,,
2019/1/8,4:00:00,13,���k��,1.8,-17.1,82.2,0,0,12,��,4.6,30,,
2019/1/8,5:00:00,13,���k��,3,-18.2,84.1,0,0,12,��,5,47,,
2019/1/8,6:00:00,13,���k��,2.4,-17.7,85,0,0,13,���k��,3.1,14,,
2019/1/8,7:00:00,13,���k��,3.1,-17.5,85.2,0,0.01,13,���k��,3.8,54,,
2019/1/8,8:00:00,13,���k��,1.5,-16.4,85.1,0,0.09,13,���k��,4.1,8,,
2019/1/8,9:00:00,13,���k��,0.7,-13.1,77.2,0,0.18,12,��,3.6,8,,
2019/1/8,10:00:00,13,���k��,1,-8.8,50.5,0,0.42,13,���k��,1.8,6,,
2019/1/8,11:00:00,2,�k��,1.8,-3.2,33.4,0,0.52,2,�k��,3,29,,
2019/1/8,12:00:00,3,���k��,2.2,-1.4,41.6,0,0.55,3,���k��,3.1,56,,
2019/1/8,13:00:00,4,��,2.5,-0.7,44,0,0.51,4,��,3.4,56,,
2019/1/8,14:00:00,4,��,2.2,-1.5,46.1,0,0.42,4,��,3.6,45,,
2019/1/8,15:00:00,16,�É�,0,-0.9,42.8,0,0.28,3,���k��,2.9,2,,
2019/1/8,16:00:00,12,��,1.1,-6.2,45,0,0.09,11,���쐼,2.3,59,,
2019/1/8,17:00:00,12,��,1.1,-11.2,59.1,0,0.01,11,���쐼,2.9,15,,
2019/1/8,18:00:00,12,��,2.1,-11,70.3,0,0,12,��,2.8,54,,
2019/1/8,19:00:00,13,���k��,1.8,-8.5,77.3,0,0,11,���쐼,3.4,8,,
2019/1/8,20:00:00,14,�k��,1.6,-13.7,77.5,0,0,13,���k��,2.7,17,,
2019/1/8,21:00:00,14,�k��,2.1,-12.7,82.3,0,0,14,�k��,2.7,53,,
2019/1/8,22:00:00,13,���k��,2.2,-13.5,82.9,0,0,14,�k��,3.7,25,,
2019/1/8,23:00:00,13,���k��,2.6,-13.4,80.8,0,0,13,���k��,3.8,50,,
2019/1/8,0:00:00,13,���k��,2.3,-13.5,85.3,0,0,13,���k��,3.2,37,,
2019/1/9,1:00:00,14,�k��,2.1,-15.1,82.2,0,0,14,�k��,3,45,,
2019/1/9,2:00:00,16,�k,0.9,-14.6,84.2,0,0,14,�k��,2.9,44,,
2019/1/9,3:00:00,14,�k��,0.8,-14.1,85.4,0,0,13,���k��,3.3,38,,
2019/1/9,4:00:00,13,���k��,2.6,-12.9,84.5,0,0,13,���k��,3.5,51,,
2019/1/9,5:00:00,12,��,2.1,-14.9,80.4,0,0,2,�k��,6.9,13,,
2019/1/9,6:00:00,13,���k��,2.2,-13.8,81.2,0,0,13,���k��,3.8,13,,
2019/1/9,7:00:00,14,�k��,1.5,-14,81.7,0,0.01,14,�k��,5.9,25,,
2019/1/9,8:00:00,13,���k��,2.6,-14.1,75.9,0,0.08,13,���k��,4.2,11,,
2019/1/9,9:00:00,14,�k��,1.3,-10.5,57.9,0,0.27,12,��,2.6,46,,
2019/1/9,10:00:00,15,�k�k��,1.7,-3.5,37.2,0,0.42,15,�k�k��,3.2,51,,
2019/1/9,11:00:00,15,�k�k��,2.8,-2.1,31.9,0,0.51,15,�k�k��,6.1,42,,
2019/1/9,12:00:00,15,�k�k��,5.1,-2.1,33.2,0,0.54,15,�k�k��,9.3,46,,
2019/1/9,13:00:00,15,�k�k��,3.3,-1.4,30.3,0,0.52,14,�k��,7.7,12,,
2019/1/9,14:00:00,14,�k��,2.8,-1.3,30,0,0.43,15,�k�k��,8.6,18,,
2019/1/9,15:00:00,11,���쐼,1.4,-2.1,29.5,0,0.28,14,�k��,6.4,5,,
2019/1/9,16:00:00,11,���쐼,2.7,-3.8,37.2,0,0.1,10,�쐼,5.5,41,,
2019/1/9,17:00:00,10,�쐼,1.3,-5.6,45.2,0,0.01,12,��,6.9,5,,
2019/1/9,18:00:00,9,��쐼,2.3,-4.8,53.2,0,0,9,��쐼,3.7,49,,
2019/1/9,19:00:00,11,���쐼,1.5,-11.8,52.4,0,0,8,��,3.1,27,,
2019/1/9,20:00:00,13,���k��,2.6,-11.9,68.6,0,0,14,�k��,4,43,,
2019/1/9,21:00:00,12,��,0.7,-13.4,71.3,0,0,13,���k��,2.9,0,,
2019/1/9,22:00:00,13,���k��,2.1,-8.7,80.5,0,0,12,��,7.1,45,,
2019/1/9,23:00:00,14,�k��,1.2,-8.3,74,0,0,12,��,5.1,22,,
2019/1/9,0:00:00,11,���쐼,1.8,-3.8,68,0,0,14,�k��,13.1,1,,
2019/1/10,1:00:00,11,���쐼,1.7,-2.7,60.9,0,0,12,��,4.4,33,,
2019/1/10,2:00:00,12,��,1.8,-3.8,62,0,0,13,���k��,3.5,27,,
2019/1/10,3:00:00,12,��,1.9,-8.6,65.1,0,0,13,���k��,2.6,24,,
2019/1/10,4:00:00,11,���쐼,0.4,-10.9,69.9,0,0,12,��,3.3,51,,
2019/1/10,5:00:00,15,�k�k��,1.6,-11.4,62.1,0,0,16,�k,3.7,17,,
2019/1/10,6:00:00,13,���k��,0.9,-11.1,71,0,0,14,�k��,2,1,,
2019/1/10,7:00:00,-12.9,#N/A,78.2,0,0.01,,,,,,,,
2019/1/10,8:00:00,1,�k�k��,1.4,-11.5,83.1,0,0.09,12,��,2.7,36,,
2019/1/10,9:00:00,13,���k��,0.8,-5.2,49,0,0.26,12,��,2.5,42,,
2019/1/10,10:00:00,2,�k��,1.3,0.8,35.3,0,0.41,12,��,3.5,15,,
2019/1/10,11:00:00,2.9,�k��,30.8,0,0.51,,,,,,,,
2019/1/10,12:00:00,2,�k��,1.8,3.2,34.8,0,0.54,3,���k��,5.2,31,,
2019/1/10,13:00:00,6,�쓌,3.1,2.6,41.1,0,0.51,6,�쓌,5.1,46,,
2019/1/10,14:00:00,13,���k��,6.1,3.9,35.7,0,0.42,13,���k��,10.6,47,,
2019/1/10,15:00:00,13,���k��,4.1,3.5,37.6,0,0.28,11,���쐼,9,8,,
2019/1/10,16:00:00,11,���쐼,4.1,2.5,44.3,0,0.07,12,��,8.9,20,,
2019/1/10,17:00:00,1,�k�k��,1.9,-0.8,62.2,0,0.01,12,��,7.9,1,,
2019/1/10,18:00:00,15,�k�k��,1,-5.1,65.8,0,0,1,�k�k��,2.5,59,,
2019/1/10,19:00:00,13,���k��,0.6,-8,71.8,0,0,13,���k��,2.7,37,,
2019/1/10,20:00:00,-8.4,#N/A,75.9,0,0,,,,,,,,
2019/1/10,21:00:00,15,�k�k��,1.8,-8.1,82.6,0,0,14,�k��,3.3,58,,
2019/1/10,22:00:00,14,�k��,2.4,-4.7,82.4,0,0,14,�k��,4.1,11,,
2019/1/10,23:00:00,15,�k�k��,1.6,-2.9,83.1,0,0,13,���k��,4.3,19,,
2019/1/10,0:00:00,14,�k��,3.2,-1.9,72,0,0,14,�k��,7.8,26,,
2019/1/11,1:00:00,15,�k�k��,3.1,-1.8,64.3,0,0,14,�k��,6,56,,
2019/1/11,2:00:00,14,�k��,2.2,-3.3,66.7,0,0,15,�k�k��,7.1,1,,
2019/1/11,3:00:00,16,�k,3.5,-4.1,71.5,0,0,16,�k,6,59,,
2019/1/11,4:00:00,1,�k�k��,5,-5.3,75.8,0,0,1,�k�k��,10.8,22,,
2019/1/11,5:00:00,16,�k,3.3,-5.5,74.1,0,0,1,�k�k��,7.1,37,,
2019/1/11,6:00:00,14,�k��,2.3,-6.3,75.1,0,0,15,�k�k��,5,8,,
2019/1/11,7:00:00,15,�k�k��,2.7,-6.5,65.6,0,0.01,15,�k�k��,7.1,57,,
2019/1/11,8:00:00,15,�k�k��,2.8,-5.1,47.4,0,0.09,14,�k��,8.8,38,,
2019/1/11,9:00:00,15,�k�k��,3.3,-4,38.7,0,0.27,1,�k�k��,8.1,22,,
2019/1/11,10:00:00,15,�k�k��,5.5,-3.3,38,0,0.42,15,�k�k��,10.6,44,,
2019/1/11,11:00:00,15,�k�k��,4.8,-2.6,38.3,0,0.52,14,�k��,10.4,5,,
2019/1/11,12:00:00,15,�k�k��,6.3,-2,37.1,0,0.55,15,�k�k��,12.1,33,,
2019/1/11,13:00:00,15,�k�k��,5.2,-1.4,37.4,0,0.53,14,�k��,13.8,39,,
2019/1/11,14:00:00,15,�k�k��,5.5,-1.4,35.1,0,0.44,15,�k�k��,12.2,42,,
2019/1/11,15:00:00,15,�k�k��,3.9,-1.5,35,0,0.29,15,�k�k��,11.5,16,,
2019/1/11,16:00:00,14,�k��,3.9,-2.8,43.4,0,0.11,15,�k�k��,10.3,0,,
2019/1/11,17:00:00,14,�k��,4,-4.6,52,0,0.01,14,�k��,6.7,52,,
2019/1/11,18:00:00,13,���k��,2.4,-6,57.7,0,0,14,�k��,3.5,0,,
2019/1/11,19:00:00,14,�k��,2.5,-6.3,65.9,0,0,14,�k��,3.6,59,,
2019/1/11,20:00:00,13,���k��,2.3,-8.3,67.1,0,0,14,�k��,4.5,9,,
2019/1/11,21:00:00,14,�k��,1.8,-10.8,68.3,0,0,13,���k��,3.4,33,,
2019/1/11,22:00:00,13,���k��,1.2,-13.6,75.1,0,0,13,���k��,2.7,12,,
2019/1/11,23:00:00,13,���k��,3.4,-13,81,0,0,13,���k��,4.3,49,,
2019/1/11,0:00:00,13,���k��,2.2,-13.2,83.8,0,0,12,��,3.4,34,,
2019/1/12,1:00:00,14,�k��,1.3,-13.7,83.5,0,0,13,���k��,3.6,22,,
2019/1/12,2:00:00,13,���k��,1.4,-14.2,83.1,0,0,14,�k��,2.9,56,,
2019/1/12,3:00:00,13,���k��,2.8,-13.1,84.5,0,0,13,���k��,4.5,24,,
2019/1/12,4:00:00,13,���k��,3,-14.2,84.5,0,0,13,���k��,4.3,33,,
2019/1/12,5:00:00,14,�k��,3.5,-13.7,83.5,0,0,14,�k��,4.6,58,,
2019/1/12,6:00:00,12,��,1.6,-15.9,83.8,0,0,14,�k��,4.6,7,,
2019/1/12,7:00:00,14,�k��,2.4,-14.6,84.4,0,0.01,14,�k��,4,46,,
2019/1/12,8:00:00,14,�k��,2.5,-12.2,85.6,0,0.09,14,�k��,4.1,45,,
2019/1/12,9:00:00,1,�k�k��,0.9,-8.7,61.7,0,0.27,13,���k��,2.7,0,,
2019/1/12,10:00:00,14,�k��,3.3,-3.4,39.9,0,0.42,14,�k��,5.9,57,,
2019/1/12,11:00:00,16,�É�,0.2,-1.6,39.4,0,0.51,16,�k,5.9,16,,
2019/1/12,12:00:00,14,�k��,3.1,-1.3,33.9,0,0.55,13,���k��,6.2,50,,
2019/1/12,13:00:00,15,�k�k��,3,-0.5,32.7,0,0.52,14,�k��,5.1,48,,
2019/1/12,14:00:00,15,�k�k��,2.8,-0.4,33.8,0,0.43,14,�k��,7.3,43,,
2019/1/12,15:00:00,15,�k�k��,3.1,-1.1,37.8,0,0.29,16,�k,8.6,0,,
2019/1/12,16:00:00,15,�k�k��,3.1,-2.3,44,0,0.12,15,�k�k��,6.2,4,,
2019/1/12,17:00:00,15,�k�k��,2.5,-3.7,51.1,0,0.01,1,�k�k��,6.3,11,,
2019/1/12,18:00:00,16,�k,1.3,-4.8,52.6,0,0,15,�k�k��,4.1,27,,
2019/1/12,19:00:00,15,�k�k��,2.3,-4.6,57.5,0,0,15,�k�k��,4.6,50,,
2019/1/12,20:00:00,14,�k��,1.9,-6,59.4,0,0,15,�k�k��,4.9,3,,
2019/1/12,21:00:00,14,�k��,1.2,-8.1,61.7,0,0,14,�k��,4.4,8,,
2019/1/12,22:00:00,12,��,2.1,-13,61.4,0,0,13,���k��,2.6,49,,
2019/1/12,23:00:00,12,��,2.5,-12.7,78,0,0,12,��,3,59,,
2019/1/12,0:00:00,14,�k��,2.9,-9.8,79.4,0,0,14,�k��,4.2,55,,
2019/1/13,1:00:00,14,�k��,2.4,-9.2,80.9,0,0,15,�k�k��,4.8,43,,
2019/1/13,2:00:00,14,�k��,2,-10.8,72.6,0,0,15,�k�k��,5.6,9,,
2019/1/13,3:00:00,13,���k��,2.6,-13.5,74.5,0,0,14,�k��,3.6,57,,
2019/1/13,4:00:00,13,���k��,3.5,-11.7,80.4,0,0,14,�k��,5.7,52,,
2019/1/13,5:00:00,14,�k��,3.2,-11.8,78.3,0,0,14,�k��,5.5,27,,
2019/1/13,6:00:00,14,�k��,3.7,-11.8,76.3,0,0,14,�k��,5.4,56,,
2019/1/13,7:00:00,14,�k��,3.2,-11.5,76.4,0,0.01,14,�k��,5.4,42,,
2019/1/13,8:00:00,14,�k��,2.6,-11,69.7,0,0.1,14,�k��,5.5,20,,
2019/1/13,9:00:00,14,�k��,2.7,-8.5,55.8,0,0.28,14,�k��,4.9,43,,
2019/1/13,10:00:00,14,�k��,3,-6,44.8,0,0.43,14,�k��,5,46,,
2019/1/13,11:00:00,14,�k��,2.4,-4.8,34.5,0,0.53,14,�k��,5.4,1,,
2019/1/13,12:00:00,14,�k��,2.5,-4.3,35.7,0,0.56,13,���k��,4.8,42,,
2019/1/13,13:00:00,15,�k�k��,2,-3.5,32.2,0,0.54,14,�k��,4.5,7,,
2019/1/13,14:00:00,14,�k��,2.6,-3.2,31.6,0,0.45,14,�k��,4.5,51,,
2019/1/13,15:00:00,14,�k��,2.7,-3.1,32.6,0,0.3,13,���k��,4.1,51,,
2019/1/13,16:00:00,13,���k��,2,-5.1,38.4,0,0.13,14,�k��,3.8,54,,
2019/1/13,17:00:00,13,���k��,1.5,-7.1,50.3,0,0.01,13,���k��,3.5,38,,
2019/1/13,18:00:00,14,�k��,2.3,-7.4,62.6,0,0,14,�k��,3.3,57,,
2019/1/13,19:00:00,13,���k��,3,-8.8,63.6,0,0,14,�k��,4.9,41,,
2019/1/13,20:00:00,14,�k��,2.2,-8.9,66.3,0,0,14,�k��,5.3,19,,
2019/1/13,21:00:00,13,���k��,1.2,-9.1,69.6,0,0,13,���k��,2.4,1,,
2019/1/13,22:00:00,14,�k��,2.5,-10,69.9,0,0,14,�k��,3.5,46,,
2019/1/13,23:00:00,14,�k��,2.2,-12.3,73.4,0,0,14,�k��,3.4,39,,
2019/1/13,0:00:00,14,�k��,2.2,-11.1,78.1,0,0,14,�k��,3.6,9,,
2019/1/14,1:00:00,14,�k��,2.3,-11.2,80.1,0,0,14,�k��,3.6,43,,
2019/1/14,2:00:00,14,�k��,1.7,-11,80.2,0,0,14,�k��,3,8,,
2019/1/14,3:00:00,14,�k��,2.1,-13.5,77.2,0,0,14,�k��,2.8,59,,
2019/1/14,4:00:00,14,�k��,2.1,-11.8,82.5,0,0,14,�k��,4.2,4,,
2019/1/14,5:00:00,14,�k��,2.9,-12.2,80.4,0,0,13,���k��,4.1,49,,
2019/1/14,6:00:00,14,�k��,2.8,-12.7,79.5,0,0,13,���k��,4.1,57,,
2019/1/14,7:00:00,14,�k��,3,-13.2,79,0,0.01,13,���k��,4.6,10,,
2019/1/14,8:00:00,14,�k��,2.9,-11.5,75.5,0,0.09,14,�k��,6,47,,
2019/1/14,9:00:00,14,�k��,3.6,-8.9,63.2,0,0.27,14,�k��,5.9,41,,
2019/1/14,10:00:00,15,�k�k��,2.5,-6.8,50.4,0,0.42,14,�k��,5.3,41,,
2019/1/14,11:00:00,14,�k��,2.5,-5.2,45.3,0,0.52,14,�k��,5.5,15,,
2019/1/14,12:00:00,14,�k��,0.7,-3.3,35.9,0,0.56,14,�k��,3.6,10,,
2019/1/14,13:00:00,16,�É�,0.2,-3.7,33.1,0,0.53,9,��쐼,1.3,9,,
2019/1/14,14:00:00,6,�쓌,1.7,-3,37.2,0,0.44,6,�쓌,3.3,57,,
2019/1/14,15:00:00,16,�É�,0,-3.6,44.7,0,0.29,5,���쓌,2.5,7,,
2019/1/14,16:00:00,10,�쐼,1.2,-5.5,48,0,0.12,10,�쐼,1.6,58,,
2019/1/14,17:00:00,12,��,1.7,-9.7,60.4,0,0.01,11,���쐼,2,59,,
2019/1/14,18:00:00,13,���k��,1.6,-13,70.8,0,0,13,���k��,2.3,54,,
2019/1/14,19:00:00,13,���k��,1.6,-13.1,74.2,0,0,12,��,2.7,38,,
2019/1/14,20:00:00,14,�k��,2.1,-12.3,81,0,0,14,�k��,2.9,45,,
2019/1/14,21:00:00,13,���k��,1.8,-13.2,78.2,0,0,14,�k��,3.3,17,,
2019/1/14,22:00:00,13,���k��,1.3,-14.8,80.4,0,0,13,���k��,3.3,39,,
2019/1/14,23:00:00,13,���k��,2.2,-14.5,83.8,0,0,13,���k��,3.7,44,,
2019/1/14,0:00:00,13,���k��,1.4,-15.2,83.2,0,0,14,�k��,3.3,43,,
2019/1/15,1:00:00,13,���k��,1.5,-15.7,83.4,0,0,13,���k��,2.8,4,,
2019/1/15,2:00:00,13,���k��,1.1,-14.5,85.2,0,0,12,��,2.8,44,,
2019/1/15,3:00:00,14,�k��,2,-13.7,85.8,0,0,13,���k��,3.3,56,,
2019/1/15,4:00:00,14,�k��,1.7,-11.9,87.5,0,0,14,�k��,3.1,59,,
2019/1/15,5:00:00,13,���k��,1.8,-13,83.9,0,0,15,�k�k��,4.7,5,,
2019/1/15,6:00:00,13,���k��,1.8,-12.8,83.5,0,0,13,���k��,3.7,12,,
2019/1/15,7:00:00,-13.5,#N/A,83.5,0,0.01,,,,,,,,
2019/1/15,8:00:00,14,�k��,2.5,-10.5,86.7,0,0.08,14,�k��,4.4,59,,
2019/1/15,9:00:00,14,�k��,2,-8.5,70.5,0,0.2,14,�k��,4,18,,
2019/1/15,10:00:00,14,�k��,1.4,-6.9,67,0,0.22,13,���k��,4.3,7,,
2019/1/15,11:00:00,13,���k��,1.6,-5.1,54.5,0,0.36,14,�k��,2.5,3,,
2019/1/15,12:00:00,7,��쓌,0.4,-2.4,48.9,0,0.38,16,�k,2.5,23,,
2019/1/15,13:00:00,4,��,1.1,-0.9,60.5,0,0.44,6,�쓌,3,31,,
2019/1/15,14:00:00,9,��쐼,3.9,1.6,70.5,0,0.29,9,��쐼,6.8,50,,
2019/1/15,15:00:00,8,��,6.3,1.7,73.7,0,0.19,8,��,10.7,32,,
2019/1/15,16:00:00,8,��,6.1,1.6,70,0,0.05,9,��쐼,11.2,5,,
2019/1/15,17:00:00,8,��,6.5,1.7,76,0,0.01,8,��,11.9,54,,
2019/1/15,18:00:00,8,��,5.7,2,78.4,0,0,8,��,12.7,16,,
2019/1/15,19:00:00,8,��,4,2.2,82.7,0,0,8,��,9.4,16,,
2019/1/15,20:00:00,8,��,5.9,2.6,90.2,1,0,8,��,9.8,54,,
2019/1/15,21:00:00,9,��쐼,7.4,3,92.3,1,0,10,�쐼,14.4,35,,
2019/1/15,22:00:00,9,��쐼,4.9,3.4,92.2,0.5,0,9,��쐼,13.1,6,,
2019/1/15,23:00:00,10,�쐼,3.5,3.8,80.1,0,0,10,�쐼,10.4,20,,
2019/1/15,0:00:00,9,��쐼,3.4,2.5,77.1,0,0,11,���쐼,13.9,30,,
2019/1/16,1:00:00,11,���쐼,4.3,2.9,64.1,0,0,10,�쐼,7.4,55,,
2019/1/16,2:00:00,12,��,2.7,1.6,61.3,0,0,11,���쐼,7.5,4,,
2019/1/16,3:00:00,12,��,1,-1.1,58.5,0,0,13,���k��,5.5,9,,
2019/1/16,4:00:00,11,���쐼,3.6,-0.4,53,0,0,13,���k��,5.9,20,,
2019/1/16,5:00:00,13,���k��,2.2,-2,53.7,0,0,11,���쐼,8.4,16,,
2019/1/16,6:00:00,14,�k��,1.2,-4.5,73.7,0,0,2,�k��,4.6,27,,
2019/1/16,7:00:00,12,��,2.3,-6.5,76,0,0.01,13,���k��,3.8,51,,
2019/1/16,8:00:00,11,���쐼,1.4,-5.6,83.7,0,0.1,12,��,2.5,57,,
2019/1/16,9:00:00,16,�k,0.4,-0.4,61.8,0,0.26,12,��,2.6,20,,
2019/1/16,10:00:00,14,�k��,2.2,-0.6,40,0,0.31,16,�k,3.6,29,,
2019/1/16,11:00:00,14,�k��,3.3,0.2,34.2,0,0.56,15,�k�k��,5.5,57,,
2019/1/16,12:00:00,15,�k�k��,4.7,-1.2,35,0,0.47,15,�k�k��,8.5,57,,
2019/1/16,13:00:00,14,�k��,3.9,-1.1,34.7,0,0.51,15,�k�k��,8.5,27,,
2019/1/16,14:00:00,15,�k�k��,3.1,-1.1,32.2,0,0.45,14,�k��,7.7,10,,
2019/1/16,15:00:00,14,�k��,2.8,-2.1,34.1,0,0.31,16,�k,6,8,,
2019/1/16,16:00:00,13,���k��,2.9,-4.9,35.7,0,0.13,13,���k��,4.7,9,,